Location: Unspecified
(0.0000°N, 0.0000°E)
Time: 22:20:40
(UTC+00:00)

Oscar 11 - Visible Passes

Search period start: 02 July 2020 00:00
Search period end: 12 July 2020 00:00
Orbit: 613 x 626 km, 97.6° (Epoch: 02 July)

Date Brightness Start Highest point End Pass type
(mag) Time Alt. Az. Time Alt. Az. Time Alt. Az.
02 Jul 9.7 05:32:25 10° NE 05:35:38 21° ESE 05:38:51 10° SSE visible
02 Jul 10.1 19:18:27 10° WSW 19:20:03 12° WSW 19:21:38 10° W visible
05 Jul 8.1 18:31:00 10° S 18:35:13 50° WSW 18:39:25 10° NNW visible
06 Jul 9.1 18:48:28 10° SSW 18:52:13 28° WSW 18:55:56 10° NW visible
07 Jul 9.9 05:22:18 10° ENE 05:24:47 15° ESE 05:27:15 10° SE visible
07 Jul 9.9 19:06:27 10° SW 19:09:12 17° WSW 19:11:57 10° WNW visible
11 Jul 8.5 18:37:18 10° S 18:41:22 39° WSW 18:45:24 10° NNW visible
